Time,TemperatureF,DewpointF,PressureIn,WindDirection,WindDirectionDegrees,WindSpeedMPH,WindSpeedGustMPH,Humidity,HourlyPrecipIn,Conditions,Clouds,dailyrainin,SoftwareType,DateUTC
2013-02-28 00:03:00,34.6,33.0,29.87,NW,304,0.0,7.0,94,0.00,,,0.01,weatherlink.com 1.10,2013-02-28 06:03:00,
2013-02-28 00:18:00,34.4,33.0,29.87,NNW,336,2.0,9.0,94,0.00,,,0.01,weatherlink.com 1.10,2013-02-28 06:18:00,
2013-02-28 00:33:00,34.2,33.0,29.88,NNW,329,2.0,8.0,94,0.00,,,0.01,weatherlink.com 1.10,2013-02-28 06:33:00,
2013-02-28 00:48:00,33.6,32.0,29.88,West,280,4.0,8.0,93,0.00,,,0.01,weatherlink.com 1.10,2013-02-28 06:48:00,
2013-02-28 01:03:00,33.5,32.0,29.88,NNW,329,0.0,7.0,93,0.00,,,0.01,weatherlink.com 1.10,2013-02-28 07:03:00,
2013-02-28 01:18:00,33.5,32.0,29.88,NW,316,2.0,5.0,93,0.00,,,0.00,weatherlink.com 1.10,2013-02-28 07:18:00,
2013-02-28 01:33:00,33.6,32.0,29.88,West,280,4.0,5.0,92,0.00,,,0.00,weatherlink.com 1.10,2013-02-28 07:33:00,
2013-02-28 01:48:00,33.7,32.0,29.88,NW,323,1.0,6.0,92,0.00,,,0.00,weatherlink.com 1.10,2013-02-28 07:48:00,
2013-02-28 02:03:00,33.8,32.0,29.88,West,279,2.0,6.0,91,0.01,,,0.01,weatherlink.com 1.10,2013-02-28 08:03:00,
2013-02-28 02:18:00,33.8,32.0,29.89,NNW,336,0.0,5.0,91,0.01,,,0.01,weatherlink.com 1.10,2013-02-28 08:18:00,
2013-02-28 02:48:00,33.8,32.0,29.89,WSW,257,0.0,2.0,91,0.01,,,0.01,weatherlink.com 1.10,2013-02-28 08:48:00,
2013-02-28 03:03:00,33.7,31.0,29.89,NW,326,1.0,6.0,90,0.00,,,0.01,weatherlink.com 1.10,2013-02-28 09:03:00,
2013-02-28 03:18:00,33.6,31.0,29.89,NW,309,6.0,10.0,89,0.00,,,0.01,weatherlink.com 1.10,2013-02-28 09:18:00,
2013-02-28 03:33:00,33.4,30.0,29.90,NNW,329,0.0,8.0,88,0.00,,,0.01,weatherlink.com 1.10,2013-02-28 09:33:00,
2013-02-28 03:48:00,33.3,30.0,29.90,NW,311,1.0,6.0,87,0.00,,,0.01,weatherlink.com 1.10,2013-02-28 09:48:00,
2013-02-28 04:03:00,33.2,30.0,29.90,NW,309,2.0,8.0,86,0.00,,,0.01,weatherlink.com 1.10,2013-02-28 10:03:00,
2013-02-28 04:18:00,33.2,29.0,29.90,West,273,2.0,10.0,84,0.00,,,0.01,weatherlink.com 1.10,2013-02-28 10:18:00,
2013-02-28 04:33:00,33.2,29.0,29.91,West,273,1.0,6.0,83,0.00,,,0.01,weatherlink.com 1.10,2013-02-28 10:33:00,
2013-02-28 04:48:00,33.0,28.0,29.91,WNW,294,1.0,5.0,83,0.00,,,0.01,weatherlink.com 1.10,2013-02-28 10:48:00,
2013-02-28 05:03:00,33.0,28.0,29.92,NW,309,1.0,4.0,83,0.00,,,0.01,weatherlink.com 1.10,2013-02-28 11:03:00,
2013-02-28 05:18:00,33.0,28.0,29.93,West,277,0.0,6.0,83,0.00,,,0.01,weatherlink.com 1.10,2013-02-28 11:18:00,
2013-02-28 05:33:00,33.1,28.0,29.93,WNW,284,2.0,10.0,82,0.00,,,0.01,weatherlink.com 1.10,2013-02-28 11:33:00,
2013-02-28 05:48:00,33.2,28.0,29.93,West,281,1.0,6.0,81,0.00,,,0.01,weatherlink.com 1.10,2013-02-28 11:48:00,
2013-02-28 06:03:00,33.1,28.0,29.94,West,281,1.0,5.0,82,0.00,,,0.01,weatherlink.com 1.10,2013-02-28 12:03:00,
2013-02-28 06:18:00,33.1,28.0,29.93,WNW,282,1.0,7.0,82,0.00,,,0.01,weatherlink.com 1.10,2013-02-28 12:18:00,
2013-02-28 06:34:00,33.1,29.0,29.94,West,272,0.0,6.0,83,0.00,,,0.01,weatherlink.com 1.10,2013-02-28 12:34:00,
2013-02-28 06:49:00,33.1,29.0,29.95,West,281,1.0,6.0,84,0.00,,,0.01,weatherlink.com 1.10,2013-02-28 12:49:00,
2013-02-28 07:04:00,33.2,29.0,29.95,West,280,1.0,11.0,83,0.00,,,0.01,weatherlink.com 1.10,2013-02-28 13:04:00,
2013-02-28 07:19:00,33.2,29.0,29.95,WSW,255,5.0,8.0,84,0.00,,,0.01,weatherlink.com 1.10,2013-02-28 13:19:00,
2013-02-28 07:34:00,33.3,29.0,29.96,WNW,287,5.0,7.0,84,0.00,,,0.01,weatherlink.com 1.10,2013-02-28 13:34:00,
2013-02-28 07:49:00,33.4,29.0,29.96,West,269,1.0,8.0,83,0.00,,,0.01,weatherlink.com 1.10,2013-02-28 13:49:00,
2013-02-28 08:04:00,33.6,29.0,29.97,WSW,242,6.0,9.0,84,0.00,,,0.01,weatherlink.com 1.10,2013-02-28 14:04:00,
2013-02-28 08:19:00,33.8,29.0,29.98,West,274,6.0,9.0,83,0.00,,,0.01,weatherlink.com 1.10,2013-02-28 14:19:00,
2013-02-28 08:34:00,34.2,30.0,29.98,WNW,294,8.0,9.0,83,0.00,,,0.01,weatherlink.com 1.10,2013-02-28 14:34:00,
2013-02-28 08:49:00,34.7,30.0,29.98,WNW,285,2.0,9.0,83,0.00,,,0.01,weatherlink.com 1.10,2013-02-28 14:49:00,
2013-02-28 09:04:00,35.3,30.0,29.98,WSW,242,2.0,9.0,82,0.00,,,0.01,weatherlink.com 1.10,2013-02-28 15:04:00,
2013-02-28 09:19:00,35.4,30.0,29.98,WSW,249,4.0,13.0,81,0.00,,,0.01,weatherlink.com 1.10,2013-02-28 15:19:00,
2013-02-28 09:34:00,35.6,30.0,29.98,WNW,284,2.0,9.0,81,0.00,,,0.01,weatherlink.com 1.10,2013-02-28 15:34:00,
2013-02-28 09:49:00,35.7,30.0,29.99,North,10,4.0,12.0,80,0.00,,,0.01,weatherlink.com 1.10,2013-02-28 15:49:00,
2013-02-28 10:04:00,35.8,30.0,30.00,WNW,293,6.0,9.0,80,0.01,,,0.02,weatherlink.com 1.10,2013-02-28 16:04:00,
2013-02-28 10:19:00,36.0,30.0,30.00,West,261,9.0,11.0,79,0.01,,,0.02,weatherlink.com 1.10,2013-02-28 16:19:00,
2013-02-28 10:34:00,36.5,31.0,29.99,NW,309,3.0,10.0,80,0.01,,,0.02,weatherlink.com 1.10,2013-02-28 16:34:00,
2013-02-28 10:49:00,37.2,31.0,29.99,West,271,8.0,12.0,79,0.01,,,0.02,weatherlink.com 1.10,2013-02-28 16:49:00,
2013-02-28 11:04:00,37.5,31.0,30.00,NNW,333,5.0,13.0,78,0.00,,,0.02,weatherlink.com 1.10,2013-02-28 17:04:00,
2013-02-28 11:19:00,38.1,32.0,30.00,NW,305,9.0,12.0,77,0.00,,,0.02,weatherlink.com 1.10,2013-02-28 17:19:00,
2013-02-28 11:35:00,37.6,31.0,29.99,WNW,294,3.0,9.0,77,0.00,,,0.02,weatherlink.com 1.10,2013-02-28 17:35:00,
2013-02-28 11:49:00,37.6,31.0,29.99,WNW,299,3.0,11.0,77,0.00,,,0.02,weatherlink.com 1.10,2013-02-28 17:49:00,
2013-02-28 12:04:00,37.5,31.0,29.99,West,277,4.0,10.0,78,0.00,,,0.02,weatherlink.com 1.10,2013-02-28 18:04:00,
2013-02-28 12:20:00,37.8,31.0,29.99,West,280,4.0,12.0,76,0.00,,,0.02,weatherlink.com 1.10,2013-02-28 18:20:00,
2013-02-28 12:35:00,37.5,31.0,29.99,WNW,297,5.0,9.0,78,0.00,,,0.02,weatherlink.com 1.10,2013-02-28 18:35:00,
2013-02-28 12:50:00,38.4,32.0,29.99,WNW,285,5.0,8.0,77,0.00,,,0.02,weatherlink.com 1.10,2013-02-28 18:50:00,
2013-02-28 13:05:00,37.9,31.0,29.99,West,265,5.0,9.0,76,0.00,,,0.02,weatherlink.com 1.10,2013-02-28 19:05:00,
2013-02-28 13:20:00,37.5,31.0,29.99,West,277,5.0,9.0,77,0.00,,,0.02,weatherlink.com 1.10,2013-02-28 19:20:00,
2013-02-28 13:35:00,37.2,31.0,29.99,WNW,286,4.0,9.0,78,0.00,,,0.02,weatherlink.com 1.10,2013-02-28 19:35:00,
2013-02-28 13:50:00,38.2,32.0,29.99,West,269,5.0,8.0,78,0.00,,,0.02,weatherlink.com 1.10,2013-02-28 19:50:00,
2013-02-28 14:05:00,38.2,32.0,30.00,WNW,299,0.0,7.0,77,0.00,,,0.02,weatherlink.com 1.10,2013-02-28 20:05:00,
2013-02-28 14:20:00,38.1,32.0,30.00,NW,319,1.0,8.0,77,0.00,,,0.02,weatherlink.com 1.10,2013-02-28 20:20:00,
2013-02-28 14:35:00,38.0,31.0,30.00,NW,304,1.0,9.0,76,0.00,,,0.02,weatherlink.com 1.10,2013-02-28 20:35:00,
2013-02-28 14:50:00,37.9,31.0,30.01,WNW,295,4.0,10.0,76,0.00,,,0.02,weatherlink.com 1.10,2013-02-28 20:50:00,
2013-02-28 15:05:00,37.9,31.0,30.01,West,277,2.0,8.0,77,0.00,,,0.02,weatherlink.com 1.10,2013-02-28 21:05:00,
2013-02-28 15:20:00,37.7,32.0,30.01,West,274,1.0,8.0,79,0.00,,,0.02,weatherlink.com 1.10,2013-02-28 21:20:00,
2013-02-28 15:35:00,37.6,32.0,30.02,West,264,1.0,10.0,79,0.00,,,0.02,weatherlink.com 1.10,2013-02-28 21:35:00,
2013-02-28 15:50:00,37.7,32.0,30.02,NNW,331,2.0,9.0,79,0.00,,,0.02,weatherlink.com 1.10,2013-02-28 21:50:00,
2013-02-28 16:05:00,37.7,32.0,30.02,WSW,251,2.0,9.0,79,0.00,,,0.02,weatherlink.com 1.10,2013-02-28 22:05:00,
2013-02-28 16:20:00,38.0,32.0,30.02,SW,224,4.0,9.0,78,0.00,,,0.02,weatherlink.com 1.10,2013-02-28 22:20:00,
2013-02-28 16:35:00,37.9,32.0,30.02,NW,306,4.0,8.0,79,0.00,,,0.02,weatherlink.com 1.10,2013-02-28 22:35:00,
2013-02-28 16:50:00,37.5,32.0,30.02,WNW,292,4.0,6.0,79,0.00,,,0.02,weatherlink.com 1.10,2013-02-28 22:50:00,
2013-02-28 17:05:00,37.3,32.0,30.02,NW,306,4.0,6.0,80,0.00,,,0.02,weatherlink.com 1.10,2013-02-28 23:05:00,
2013-02-28 17:20:00,37.0,32.0,30.03,NW,325,2.0,9.0,81,0.00,,,0.02,weatherlink.com 1.10,2013-02-28 23:20:00,
2013-02-28 17:35:00,36.8,32.0,30.03,NW,309,1.0,6.0,81,0.00,,,0.02,weatherlink.com 1.10,2013-02-28 23:35:00,
2013-02-28 17:50:00,36.7,32.0,30.03,WNW,288,0.0,8.0,82,0.00,,,0.02,weatherlink.com 1.10,2013-02-28 23:50:00,
2013-02-28 18:05:00,36.6,32.0,30.03,West,265,2.0,7.0,83,0.00,,,0.02,weatherlink.com 1.10,2013-03-01 00:05:00,
2013-02-28 18:20:00,36.4,32.0,30.03,WNW,282,3.0,11.0,83,0.00,,,0.02,weatherlink.com 1.10,2013-03-01 00:20:00,
2013-02-28 18:35:00,36.0,32.0,30.03,NW,308,0.0,8.0,85,0.00,,,0.02,weatherlink.com 1.10,2013-03-01 00:35:00,
2013-02-28 18:50:00,35.8,32.0,30.04,WNW,301,3.0,5.0,86,0.00,,,0.02,weatherlink.com 1.10,2013-03-01 00:50:00,
2013-02-28 19:05:00,35.7,32.0,30.04,WNW,302,0.0,6.0,87,0.00,,,0.02,weatherlink.com 1.10,2013-03-01 01:05:00,
2013-02-28 19:20:00,35.7,32.0,30.05,West,281,0.0,4.0,87,0.00,,,0.02,weatherlink.com 1.10,2013-03-01 01:20:00,
2013-02-28 19:35:00,35.7,32.0,30.06,NW,305,3.0,6.0,87,0.00,,,0.02,weatherlink.com 1.10,2013-03-01 01:35:00,
2013-02-28 19:50:00,35.7,32.0,30.05,WNW,290,5.0,8.0,87,0.00,,,0.02,weatherlink.com 1.10,2013-03-01 01:50:00,
2013-02-28 20:05:00,35.7,32.0,30.05,NW,325,0.0,8.0,87,0.00,,,0.02,weatherlink.com 1.10,2013-03-01 02:05:00,
2013-02-28 20:20:00,35.5,32.0,30.05,WNW,299,5.0,6.0,88,0.00,,,0.02,weatherlink.com 1.10,2013-03-01 02:20:00,
2013-02-28 20:35:00,35.3,32.0,30.05,WNW,298,0.0,4.0,89,0.00,,,0.02,weatherlink.com 1.10,2013-03-01 02:35:00,
2013-02-28 20:50:00,35.1,33.0,30.06,WNW,298,0.0,4.0,90,0.00,,,0.02,weatherlink.com 1.10,2013-03-01 02:50:00,
2013-02-28 21:05:00,34.8,33.0,30.06,WNW,298,1.0,2.0,91,0.00,,,0.02,weatherlink.com 1.10,2013-03-01 03:05:00,
2013-02-28 21:20:00,34.7,33.0,30.06,WNW,298,0.0,1.0,92,0.00,,,0.02,weatherlink.com 1.10,2013-03-01 03:20:00,
2013-02-28 21:35:00,34.5,33.0,30.06,WNW,298,1.0,1.0,93,0.00,,,0.02,weatherlink.com 1.10,2013-03-01 03:35:00,
2013-02-28 21:50:00,34.3,33.0,30.06,WNW,298,0.0,2.0,93,0.00,,,0.02,weatherlink.com 1.10,2013-03-01 03:50:00,
2013-02-28 22:05:00,34.3,33.0,30.06,WNW,295,0.0,2.0,94,0.00,,,0.02,weatherlink.com 1.10,2013-03-01 04:05:00,
2013-02-28 22:20:00,34.2,33.0,30.05,WNW,296,0.0,4.0,94,0.00,,,0.02,weatherlink.com 1.10,2013-03-01 04:20:00,
2013-02-28 22:35:00,34.1,32.0,30.05,NW,315,2.0,5.0,93,0.00,,,0.02,weatherlink.com 1.10,2013-03-01 04:35:00,
2013-02-28 22:50:00,33.8,32.0,30.05,NW,315,0.0,0.0,94,0.00,,,0.02,weatherlink.com 1.10,2013-03-01 04:50:00,
2013-02-28 23:05:00,33.8,32.0,30.04,WNW,293,5.0,8.0,94,0.00,,,0.02,weatherlink.com 1.10,2013-03-01 05:05:00,
2013-02-28 23:20:00,33.8,32.0,30.04,NW,314,3.0,4.0,94,0.00,,,0.02,weatherlink.com 1.10,2013-03-01 05:20:00,
2013-02-28 23:35:00,33.7,32.0,30.04,North,355,3.0,7.0,93,0.00,,,0.02,weatherlink.com 1.10,2013-03-01 05:35:00,
2013-02-28 23:50:00,33.7,32.0,30.03,NW,314,4.0,8.0,93,0.00,,,0.02,weatherlink.com 1.10,2013-03-01 05:50:00,